Tracking 20369 objects as of 19-Feb-2020
HD Live streaming from Space Station
objects crossing your sky now

DMSP 5D-3 F18 DEB

Track DMSP 5D-3 F18 DEB now!
10-day predictions


NORAD ID: 35954
Int'l Code: 2009-057D
Perigee: 836.2 km
Apogee: 841.4 km
Inclination: 98.6 °
Period: 101.5 minutes
Semi major axis: 7209 km
RCS: 0.06 m2 (small)
Launch date: October 18, 2009
Source: United States (US)
Launch site: AIR FORCE WESTERN TEST RANGE (AFWTR)

Note: This is SATELLITE DEBRIS
aabbcc
Your satellite tracking list
Your tracking list is empty




NASA's NSSDC Master Catalog

Two Line Element Set (TLE):
1 35954U 09057D   20049.92281576 +.00000305 +00000-0 +16902-3 0  9991
2 35954 098.5788 072.7462 0003608 341.6418 136.4584 14.18139127534083
Source of the keplerian elements: AFSPC